Home > Weather > Viana do Castelo > Past weeks

Flag for Portugal Past Weather in Viana do Castelo, Portugal — Yesterday and Last 2 Weeks

Now
63 °F

Broken clouds.


Feels Like: 63 °F
Forecast: 60 / 71 °F
Wind: 6 mph from Northwest

Location: Porto / Pedras Rubras

Current Time: Jun 30, 2016 at 10:17:44 PM

Latest Report: Jun 30, 2016 at 9:30 PM


Visibility: N/A

Pressure: 30.12 "Hg

Humidity: 94%

Dew Point: 61 °F

Location of Viana do CasteloLocation

Past Weather in Viana do Castelo — Graph

°F

Viana do Castelo Temperature Yesterday

Maximum temperature yesterday: 70 °F (at 12:00 PM)
Minimum temperature yesterday: 54 °F (at 6:00 AM)
Average temperature yesterday: 63 °F

High & Low Weather Summary for the Past Weeks

 TemperatureHumidityPressure
High82 °F (Jun 27, 12:30 PM)100% (Jun 16, 4:00 AM)30.36 "Hg (Jun 16, 4:00 AM)
Low52 °F (Jun 18, 5:30 AM)30% (Jun 27, 12:30 PM)29.77 "Hg (Jun 15, 9:00 PM)
Average65 °F82%30.10 "Hg
* Reported Jun 15 9:00 PM — Jun 30 9:00 PM, Viana do Castelo, Weather by CustomWeather, © 2016

Note: Actual official high and low records may vary slightly from our data, if they occured in-between our weather recording intervals... More about our weather records

Advertising

Viana do Castelo Weather History for the Previous 24 Hours

Scroll right to see more
 ConditionsComfort  
Time TempWeatherWind HumidityBarometerVisibility
9:00 PM
Thu, Jun 30
63 °FBroken clouds.6 mph100%30.12 "HgN/A
8:30 PM63 °FPartly sunny.7 mph94%30.12 "Hg4 mi
8:00 PM63 °FPartly sunny.6 mph94%30.12 "HgN/A
7:30 PM64 °FPartly sunny.6 mph88%30.12 "HgN/A
7:00 PM64 °FPartly sunny.6 mph88%30.12 "HgN/A
6:30 PM64 °FPartly sunny.7 mph88%30.12 "HgN/A
6:00 PM64 °FPartly sunny.7 mph88%30.12 "HgN/A
5:30 PM64 °FPartly sunny.8 mph88%30.12 "HgN/A
5:00 PM64 °FPartly sunny.6 mph83%30.12 "HgN/A
4:30 PM66 °FPartly sunny.7 mph83%30.12 "HgN/A
4:00 PM64 °FPartly sunny.8 mph83%30.12 "HgN/A
3:30 PM64 °FPartly sunny.9 mph83%30.12 "HgN/A
3:00 PM66 °FBroken clouds.8 mph78%30.12 "HgN/A
2:30 PM66 °FPartly sunny.8 mph83%30.12 "HgN/A
2:00 PM64 °FPartly sunny.8 mph83%30.12 "HgN/A
1:30 PM64 °FPartly sunny.7 mph83%30.12 "HgN/A
1:00 PM66 °FPartly sunny.8 mph83%30.12 "HgN/A
12:30 PM66 °FScattered clouds.7 mph78%30.12 "HgN/A
12:00 PM64 °FPassing clouds.8 mph83%30.12 "HgN/A
11:30 AM66 °FPassing clouds.7 mph78%30.12 "HgN/A
11:00 AM64 °FScattered clouds.8 mph88%30.12 "HgN/A
10:30 AM64 °FScattered clouds.8 mph83%30.12 "HgN/A
10:00 AM63 °FScattered clouds.7 mph88%30.12 "HgN/A
9:30 AM61 °FBroken clouds.7 mph100%30.12 "Hg5 mi
9:00 AM59 °FFog.6 mph100%30.09 "Hg2 mi
8:30 AM59 °FFog.5 mph100%30.09 "Hg2 mi
8:00 AM57 °FFog.3 mph100%30.09 "Hg1 mi
7:30 AM57 °FFog.5 mph100%30.09 "Hg1 mi
7:00 AM57 °FFog.1 mph100%30.09 "Hg0 mi
6:30 AM55 °FFog.2 mph100%30.09 "Hg3 mi
6:00 AM55 °FPassing clouds.No wind100%30.07 "Hg4 mi
5:30 AM55 °FPassing clouds.1 mph100%30.07 "Hg5 mi
5:00 AM55 °FPassing clouds.No wind100%30.07 "Hg5 mi
4:30 AM57 °FPassing clouds.5 mph100%30.07 "HgN/A
4:00 AM57 °FClear.1 mph100%30.07 "Hg10 mi
3:30 AM59 °FClear.5 mph94%30.07 "Hg10 mi
3:00 AM59 °FClear.8 mph94%30.07 "Hg10 mi
2:30 AM59 °FClear.8 mph100%30.07 "Hg10 mi
2:00 AM59 °FPassing clouds.6 mph94%30.07 "HgN/A
1:30 AM59 °FClear.7 mph94%30.07 "Hg10 mi
1:00 AM59 °FClear.9 mph94%30.07 "Hg10 mi
12:30 AM61 °FClear.8 mph88%30.07 "Hg10 mi
12:00 AM61 °FClear.10 mph88%30.07 "Hg10 mi
11:30 PM
Wed, Jun 29
61 °FPassing clouds.10 mph88%30.07 "HgN/A
11:00 PM61 °FClear.14 mph88%30.07 "Hg10 mi
10:30 PM61 °FClear.13 mph88%30.07 "Hg10 mi
10:00 PM61 °FSunny.16 mph88%30.07 "Hg10 mi
Weather by CustomWeather, © 2016

See weather overviewHow to use our weather pages